Regional Weather Roundup
Issued by NWS Wakefield, VA

Home | Current Version | Previous Version | Graphics & Text | Print | Product List | Glossary On
Versions: 1 2 3 4 5 6 7 8 9 10 11 12 13 14 15 16 17 18 19 20 21 22 23 24 25 26 27 28 29 30 31 32 33 34 35 36 37 38 39 40 41 42 43 44 45 46 47 48 49 50
000
ASUS41 KAKQ 252115
RWRAKQ

REGIONAL WEATHER ROUNDUP
NATIONAL WEATHER SERVICE WAKEFIELD VA
500 PM EDT MON MAY 25 2015

Note: "fair" indicates few or no clouds below 12,000 feet with no
significant weather and/or obstructions to visibility. * = Denotes
station may not report precipitation (e.g., rain,snow,etc.),
thunder or fog.

VAZ042-051-052>054-056-252200-
NORTHERN VIRGINIA

CITY           SKY/WX    TMP DP  RH WIND       PRES   REMARKS
WASH NATIONAL  PTSUNNY   85  59  41 S17G24    30.21S
DULLES         PTSUNNY   83  59  44 SW12G18   30.19F
FORT BELVOIR   SUNNY     83  60  44 S10       30.21S
QUANTICO       MOSUNNY   83  59  44 SW15G22   30.22S
FREDERICKSBRG* SUNNY     85  58  38 SW9       30.21F
STAFFORD*      SUNNY     83  55  37 S12       30.26S
WARRENTON      SUNNY     83  62  48 S14G21    30.20F
CULPEPER*      SUNNY     82  59  45 S10G16    30.21S
MANASSAS*      MOSUNNY   82  59  44 S12G17    30.20F
LEESBURG*      SUNNY     86  63  45 S13G26    30.20S
WINCHESTER     SUNNY     86  52  30 SE13      30.17F
FRONT ROYAL*   FAIR      82  63  51 S5        30.17F
LURAY*         FAIR      86  61  42 S12G17    30.19S
$$

VAZ048-049-060>072-079>083-252200-
CENTRAL AND SOUTH CENTRAL VIRGINIA

CITY           SKY/WX    TMP DP  RH WIND       PRES   REMARKS
RICHMOND       PTSUNNY   84  56  38 S14       30.24S
CHESTERFIELD*  NOT AVBL
PETERSBURG*    SUNNY     84  53  33 S6        30.25F
HANOVER        SUNNY     83  55  38 S15G22    30.25F
TAPPAHANNOCK*  MOSUNNY   84  48  28 S10       30.25S
QUINTON*       FAIR      82  58  43 S5        30.24F
CHARLOTTSVILLE SUNNY     82  57  42 S14       30.22S
GORDONSVILLE*  FAIR      82  57  42 S12G20    30.21S
ORANGE*        SUNNY     82  57  42 S13G18    30.23F
LOUISA*        SUNNY     82  57  42 S8        30.22S
BUMPASS*       FAIR      82  60  46 SW5       30.23S
FARMVILLE*     SUNNY     83  52  34 SW8       30.22F
CREWE*         FAIR      82  52  35 SW7       30.25S
FORT PICKETT*  FAIR      82  55  39 S12       30.25F
CHASE CITY*    FAIR      85  58  38 S6        30.25F
CLARKSVILLE*   FAIR      82  54  36 SW10      30.25S
SOUTH HILL*    SUNNY     82  58  42 S9        30.31F
LAWRENCEVILLE* FAIR      82  57  42 S8        30.25F
EMPORIA*       SUNNY     82  55  39 SE7G17    30.27F
$$

VAZ088>098-252200-
SOUTHEAST VIRGINIA

CITY           SKY/WX    TMP DP  RH WIND       PRES   REMARKS
NORFOLK        MOSUNNY   82  57  42 S17       30.26F
VIRGINIA BEACH PTSUNNY   80  59  48 SE13      30.28S
NORFOLK NAVAL  MOSUNNY   86  57  37 S8G18     30.27F
WEST POINT*    SUNNY     86  52  30 S8        30.26F
SALUDA*        FAIR      81  62  53 S9        30.25S
NEWPORT NEWS   SUNNY     87  55  33 SW13      30.26S
LANGLEY AFB    SUNNY     82  58  44 S9G22     30.25S
FORT EUSTIS    SUNNY     82  59  45 S8        30.24S
WILLIAMSBURG*  SUNNY     88  59  37 S8        30.26S
HR EXEC AP*    FAIR      82  59  44 SW8       30.28S
FRANKLIN*      SUNNY     83  56  40 S9G16     30.27S
WAKEFIELD      SUNNY     84  55  36 SW9       30.26S
$$

VAZ020-022-025-037-045-252200-
WEST CENTRAL AND SOUTHWEST VIRGINIA

CITY           SKY/WX    TMP DP  RH WIND       PRES   REMARKS
STAUNTON*      SUNNY     83  55  38 SW13      30.24S
WAYNESBORO*    FAIR      79  58  47 S9        30.24F
HOT SPRINGS VA SUNNY     71  56  59 SE8       30.33S
LYNCHBURG      SUNNY     81  54  39 S14       30.25F
DANVILLE       MOSUNNY   83  57  41 S9        30.25F
SOUTH BOSTON*  FAIR      83  55  38 MISG      30.25S
MARTINSVILLE   SUNNY     83  54  36 S3        30.28S
ROANOKE        MOSUNNY   82  57  42 S16       30.25F
BLACKSBURG     SUNNY     76  56  49 S3        30.30F
DUBLIN*        SUNNY     80  58  46 S8        30.28S
MARION*        PTSUNNY   82  58  44 S7        30.28F
HILLSVILLE*    SUNNY     73  59  59 S5        30.31F
RICHLANDS*     FAIR      79  55  42 CALM      30.26F
WISE*          PTSUNNY   79  54  41 S7        30.27F
ABINGDON*      SUNNY     84  51  31 W7        30.24F
$$

MDZ021>025-VAZ099-100-252200-
SOUTHERN MARYLAND AND THE DELMARVA PENINSULA

CITY           SKY/WX    TMP DP  RH WIND       PRES   REMARKS
PATUXENT RIVER MOSUNNY   78  62  57 SE15G21   30.23F
BAY BRIDGE APT   N/A    N/A N/A N/A S13G18    30.22F
LEONARDTOWN    MOSUNNY   81  55  41 S9        30.25S
DOVER          MOSUNNY   82  61  47 S15G22    30.21R
GEORGETOWN     MOSUNNY   82  56  40 SW13G22   30.25F
EASTON         MOSUNNY   81  63  54 S16G23    30.28R
CAMBRIDGE      PTSUNNY   79  59  50 S10G17    30.25S
SALISBURY      MOSUNNY   80  57  45 S17G25    30.26S
OCEAN CITY     MOSUNNY   72  61  68 S10G20    30.29S
WALLOPS ISLAND MOSUNNY   72  61  68 S14       30.30S
ACCOMACK*      SUNNY     79  59  50 S14G20    30.28S
$$

NCZ012>017-030>032-252200-
NORTH CENTRAL AND EASTERN NORTH CAROLINA

CITY           SKY/WX    TMP DP  RH WIND       PRES   REMARKS
ROANOKE RAPIDS FAIR      82  55  39 S9        30.26S
RALEIGH        MOSUNNY   84  56  38 S8        30.26F
ELIZABETH CITY SUNNY     79  52  38 SE13      30.29F
AHOSKIE*       SUNNY     81  58  45 S10       30.27S
EDENTON*         N/A     81  47  30 S12       30.29S
CURRITUCK*     SUNNY     80  52  37 SE8       30.30S
KILL DEVIL HLS SUNNY     77  59  53 S8G17     30.30F
MANTEO         SUNNY     76  60  58 S13       30.32S
CAPE HATTERAS  MOSUNNY   76  59  55 S10       30.33S
TARBORO*       FAIR      84  53  33 S8        30.27S
GOLDSBORO      SUNNY     85  58  40 S8        30.24F
WASHINGTON     SUNNY     82  53  36 S10       30.28F
GREENVILLE     SUNNY     84  52  32 S10       30.28S
NEW BERN       SUNNY     81  55  40 SE9       30.31S
WILMINGTON     MOSUNNY   78  61  55 S12       30.30S
$$

VAZ048-252200-
ELSEWHERE

CITY           SKY/WX    TMP DP  RH WIND       PRES   REMARKS
HARRISBURG PA  PTSUNNY   84  57  39 SW8       30.15F
BALTIMORE      PTSUNNY   83  58  42 S10       30.19F
ANNAPOLIS      PTSUNNY   77  61  57 S21       30.22S
ANDREWS AFB    SUNNY     82  59  46 S13       30.21S
PHILADELPHIA   PTSUNNY   86  54  33 SW21      30.20S
HENDERSON NC   SUNNY     82  49  30 SW12      30.27S
GREENSBORO     MOSUNNY   81  54  39 SW8       30.25F
ROCKY MOUNT    SUNNY     85  56  37 S8        30.26F
$$

VAZ100-252200-
MARINE

STATION/POSITION TIME  TEMP    WIND        PRES    WAVE   SWELL
                       AIR SEA DIR/SP/G            HT/PER HT/PER
                 (UTC) (F)     (DEG/KT/KT) (MB)    (FT/S) (FT/S)
BRANDYWINE LGT   2000   70 65  190/ 14/ 17 1024.2F
CAPE MAY NJ      2000   72 69  160/ 12/ 16 1024.0F
LEWES DE         2000   81 64  250/ 13/ 19 1024.1F
15NM E FENWICK I 2050   64 61              1025.0F   3/ 4
OCEAN-CITY-INLET 2000   65 62  210/ 14/ 16 1025.3F
WACHAPREAGUE VA  2000   73 73  180/ 13/ 16 1025.5F
THOMAS POINT MD  2100   72 67  160/ 21/ 22 1023.6F
GOOSES REEF MD   2100   71 67  180/ 16/ 19 1024.6F   2/ 3
SOLOMONS ISLAND  2000      71                N/A
BISHOPS HEAD MD  2000   74 78  150/ 17/ 21 1024.1F
PINEY POINT MD   2000          230/ 13/ 15   N/A
CAMBRIDGE MD     2000   78 70  170/  8/ 15 1024.0F
LEWISETTA VA     2000   80 73              1023.8F
RAPPAHANNOCK LGT 2000          140/ 13/ 14 1025.6F
STINGRAY PT      2100   72 71  170/ 16/ 17 1024.7F   2/ 2
YORK RVR RNG VA  2000   72     150/ 18/ 20 1024.1F
YORKTOWN VA      2000   80 70  160/ 11/ 14 1024.3F
JAMESTOWN VA     2100   80 75  210/ 10/ 12 1023.4F
DOMINION TERM VA 2000   78     170/ 10/ 12 1024.8F
KIPTOPEKE VA     2000      76  160/ 20/ 23   N/A
CHES BAY BRIDGE  2000   75 68  110/ 12/ 19 1024.8F
CAPE HENRY VA    2000   73     140/ 17/ 23 1024.3F
CHESAPEAKE LGHT  2000   69     160/ 20/ 20 1026.3F
WILLOUBY STN VA  2000   80     190/ 17/ 20 1025.5F
CAPE HENRY BUOY  2028      67                N/A     2/ 3
1ST LANDING BUOY 2100      69              1025.0F
CAPE CHARLES BUO 2026      68                N/A     2/ 3   2/ 7
OFFSHORE WE BUOY 2011      64                N/A     2/ 7   2/ 7
64NM E OF VA BCH 2050   67 65  160/  6/  8 1026.6F   1/ 9   2/ 9
DUCK PIER NC     2000   71 65  130/ 17/ 18 1025.2F
44100 DUCK FRF   2024      64                N/A     1/ 7
44056 DUCK FRF   2011      66                N/A     2/ 8
OREGON INLET NC  2000   76 77  170/ 12/ 15 1026.9F
HATTERAS NC      2000   76 75  160/  9/ 12 1026.5F
DIAMOND SHLS NC  2050   74 78  160/ 10/ 14 1026.8F   2/ 8   2/ 8
CAPE LOOKOUT NC  2100   74     140/  9/ 11 1026.2F
$$


USA.gov is the U.S. government's official web portal to all federal, state and local government web resources and services.